Regional Weather Roundup
Issued by NWS

Home | Current Version | Previous Version | Graphics & Text | Print | Product List | Glossary On
Versions: 1 2 3 4 5 6 7 8 9 10 11 12 13 14 15 16 17 18 19 20 21 22 23 24 25 26 27 28 29 30 31 32 33 34 35 36 37 38 39 40 41 42 43 44 45 46 47 48 49 50
000
ASUS43 KDTX 242301
RWRMI
MICHIGAN HOURLY REGIONAL WEATHER ROUNDUP
NATIONAL WEATHER SERVICE DETROIT/PONTIAC MI
700 PM EDT SUN SEP 24 2017

NOTE: "FAIR" INDICATES FEW OR NO CLOUDS BELOW 12,000 FEET WITH NO
SIGNIFICANT WEATHER AND/OR OBSTRUCTION TO VISIBILITY.

MIZ047>049-052>055-059>063-066>070-074>076-081>083-250000-
SOUTHEAST LOWER MICHIGAN

CITY           SKY/WX    TMP DP  RH WIND       PRES   REMARKS
ADRIAN         CLEAR     84  58  40 SE7       30.09R
ALMA           CLEAR     88  50  27 S7G17     30.06S
ANN ARBOR      CLEAR     83  60  45 E5        30.08S
BAD AXE        CLEAR     83  64  54 SE5       30.09S
CARO           CLEAR     83  62  47 SE5       30.08S
DETROIT CITY   CLEAR     83  65  54 E7        30.09S
DETROIT        PTCLDY    84  65  52 E5        30.09S
FLINT          CLEAR     82  62  50 S7        30.08S
GROSSE ILE     CLEAR     82  66  59 CALM      30.07S
HILLSDALE      MOCLDY    82  55  39 CALM      30.09R
HOWELL         CLEAR     84  56  38 SE7       30.09S

CITY           SKY/WX    TMP DP  RH WIND       PRES   REMARKS
JACKSON        CLEAR     87  55  33 SE5       30.08S
LAMBERTVILLE   CLEAR     81  65  58 E5        30.08S
LANSING        CLEAR     87  56  34 SE7       30.07S
LAPEER         FAIR      83  62  48 SE5       30.10S
MASON          CLEAR     86  57  37 CALM      30.08S
MONROE         CLEAR     81  63  54 CALM      30.08S
MT. CLEMENS    PTCLDY    81  69  65 CALM      30.07F
PONTIAC        CLEAR     85  64  49 SE8       30.08F
PORT HOPE        N/A     80  65  59 S6        30.07S
PORT HURON     CLEAR     81  68  65 CALM      30.09S
TRI CITIES     CLEAR     89  59  36 S7        30.07S
MIDLAND        FAIR      89  56  32 SE6       30.05S
TROY           CLEAR     86  63  45 E7        30.10F
SAGINAW HB     CLEAR     86  55  35 SE7       30.06S
$$
MIZ043>046-050>051-056>058-064>065-071>073-077>080-250000-
SOUTHWEST LOWER MICHIGAN

CITY           SKY/WX    TMP DP  RH WIND       PRES   REMARKS
BATTLE CREEK   CLEAR     86  57  37 S7        30.08S
BENTON HARBOR  CLEAR     85  56  37 SE6       30.03S
BIG RAPIDS     PTCLDY    86  60  41 W3        30.05S
COLDWATER      CLEAR     85  55  36 CALM      30.08R
FREMONT        FAIR      85  58  40 CALM      30.04F
HOLLAND        CLEAR     85  59  41 NW3       30.05S
GRAND RAPIDS   CLEAR     89  56  32 S8        30.05S
IONIA          FAIR      89  53  28 S5        30.05R
KALAMAZOO      CLEAR     87  53  31 SE6       30.06S
LUDINGTON      CLEAR     80  62  53 SW3       30.03F
MARSHALL       CLEAR     84  57  38 SE3       30.07S
MOUNT PLEASANT CLEAR     90  50  25 S6        30.05S
MUSKEGON       PTCLDY    85  57  38 CALM      30.04S
SOUTH HAVEN    CLEAR     84  64  51 CALM      30.04R
$$
MIZ016>042-250000-
NORTHERN LOWER MICHIGAN

CITY           SKY/WX    TMP DP  RH WIND       PRES   REMARKS
ALPENA         CLEAR     83  64  52 S9        30.06S
BELLAIRE       CLEAR     80  69  68 CALM      30.02S
CADILLAC       CLEAR     88  50  27 S7        30.06S
CHARLEVOIX     CLEAR     78  64  62 CALM      30.06S
FRANKFORT      CLEAR     78  64  62 CALM      30.04S
GAYLORD        CLEAR     84  59  42 S7        30.08R
GRAYLING       CLEAR     84  58  40 S5        30.08S
HARBOR SPRINGS CLEAR     76  67  72 CALM      30.03S
HOUGHTON LAKE  CLEAR     83  61  47 SE5       30.08S
MANISTEE       CLEAR     82  64  54 SW8       30.03S
OSCODA         CLEAR     79  64  59 E6        30.08S
PELLSTON       CLEAR     83  65  54 NE7       30.04S
ROGERS CITY    CLEAR     85  64  49 SE8       30.05S
TRAVERSE CITY  PTCLDY    82  67  60 NE3       30.01R
$$
MIZ007>008-015-250000-
EASTERN UPPER MICHIGAN

CITY           SKY/WX    TMP DP  RH WIND       PRES   REMARKS
KINROSS        CLEAR     81  67  62 S3        30.05S
MACKINAC ISLAN CLEAR     79  63  57 E6        30.05S
NEWBERRY       CLEAR     76  67  74 S7        30.03S
S. S. MARIE    CLEAR     83  67  58 S5        30.03S
MUNISING         N/A     83  68  60 S7        29.97S
$$
MIZ004>006-011>014-085-250000-
CENTRAL UPPER MICHIGAN

CITY           SKY/WX    TMP DP  RH WIND       PRES   REMARKS
MANISTIQUE     CLEAR     70  64  81 S3        30.02S
ESCANABA       CLEAR     76  67  73 S10       29.99F
MENOMINEE      CLEAR     79  66  64 S9        30.00R
SAWYER-GWINN   CLEAR     82  66  57 S10G18    29.99S
$$
MIZ001>003-009>011-084-250000-
WESTERN UPPER MICHIGAN

CITY           SKY/WX    TMP DP  RH WIND       PRES   REMARKS
IRON MOUNTAIN  CLEAR     83  64  52 S8        29.98S
HOUGHTON       CLEAR     84  63  49 S5        29.92S
COPPER HARBOR    N/A     80  64  58 SW6       29.91S
IRONWOOD       CLEAR     83  59  44 S9        29.92S
$$

ABBREVIATIONS USED IN REMARKS
   TC - TEMPERATURE IN CELSIUS
  WCI - WIND CHILL INDEX
   HX - HEAT INDEX
  VSB - VISIBILITY





USA.gov is the U.S. government's official web portal to all federal, state and local government web resources and services.